This demonstration page uses our WeatherBlox Daily Observations layout. Learn more.

Left ArrowRight Arrow

Hourly Observations for July 27, 2018

Temp ( °F °C ) Dew Point ( °F °C ) Humidity (%) Winds ( mph kmh ) Pressure ( in mb ) Visibility ( mi km ) Precip ( " mm )
12:59 am 00:59 Partly Cloudy 79 26.1 75 23.9 88 88 SSW 6 9 29.99 1016 8 13 0.00 0.00
1:59 am 01:59 Partly Cloudy 78 25.6 75 23.9 90 90 SSW 6 9 29.98 1015 8 13 0.00 0.00
2:59 am 02:59 Mostly Clear 78 25.6 75 23.9 90 90 SSW 7 11 29.98 1015 7 11 0.00 0.00
3:59 am 03:59 Mostly Clear 78 25.6 74 23.3 87 87 SSW 7 11 29.98 1015 8 13 0.00 0.00
4:59 am 04:59 Partly Cloudy 77 25 74 23.3 90 90 SSW 5 7 29.98 1015 7 11 0.00 0.00
5:59 am 05:59 Partly Cloudy with Mist and Fog 76 24.4 74 23.3 94 94 SSW 5 7 29.99 1016 6 10 0.00 0.00
6:59 am 06:59 Partly Cloudy with Mist and Fog 77 25 74 23.3 90 90 SSW 5 7 30.00 1016 6 10 0.00 0.00
7:59 am 07:59 Mostly Sunny 79 26.1 74 23.3 85 85 SW 8 13 30.00 1016 7 11 0.00 0.00
8:59 am 08:59 Mostly Sunny 81 27.2 75 23.9 82 82 SW 8 13 30.01 1016 7 11 0.00 0.00
9:59 am 09:59 Mostly Sunny 83 28.3 75 23.9 77 77 VRB 5 7 30.02 1017 8 13 0.00 0.00
10:59 am 10:59 Mostly Sunny 85 29.4 76 24.4 75 75 S 6 9 30.02 1017 8 13 0.00 0.00
11:59 am 11:59 Partly Cloudy 87 30.6 76 24.4 70 70 SSW 7 11 30.02 1017 8 13 0.00 0.00
12:59 pm 12:59 Partly Cloudy 88 31.1 75 23.9 66 66 S 5 7 30.01 1016 8 13 0.00 0.00
1:59 pm 13:59 Partly Cloudy 90 32.2 75 23.9 62 62 WSW 7 11 30.00 1016 9 14 0.00 0.00
2:59 pm 14:59 Partly Cloudy 88 31.1 75 23.9 66 66 VRB 3 6 29.97 1015 8 13 0.00 0.00
3:59 pm 15:59 Partly Cloudy 89 31.7 75 23.9 63 63 NE 8 13 29.96 1014 8 13 0.00 0.00
4:59 pm 16:59 Partly Cloudy 90 32.2 75 23.9 62 62 Calm 29.95 1014 9 14 0.00 0.00
5:59 pm 17:59 Partly Cloudy 90 32.2 75 23.9 62 62 S 8 13 29.95 1014 10 16 0.00 0.00
6:53 pm 18:53 Mostly Cloudy with Thunderstorms 88 31 72 22 59 59 S 9 15 29.94 1014 10 16 0.00 0.00
6:59 pm 18:59 Mostly Cloudy with Thunderstorms 86 30 72 22.2 63 63 S 5 7 29.95 1014 10 16 0.00 0.00
7:59 pm 19:59 Mostly Cloudy with Thunderstorms 83 28.3 73 22.8 72 72 S 10 17 29.98 1015 10 16 0.00 0.00
8:59 pm 20:59 Cloudy with Thunderstorms 82 27.8 73 22.8 74 74 VRB 7 11 30.02 1017 10 16 0.00 0.00
9:19 pm 21:19 Cloudy with Thunderstorms 78 25.6 69 20.6 74 74 VRB 6 9 30.03 1017 10 16 0.00 0.00
9:50 pm 21:50 Cloudy 79 26.1 71 21.7 77 77 Calm 30.03 1017 10 16 0.00 0.00
9:59 pm 21:59 Mostly Cloudy with Light Rain 78 25.6 72 22.2 82 82 ESE 3 6 30.03 1017 7 11 0.00 0.03
10:34 pm 22:34 Mostly Cloudy with Light Rain 77 25 74 23.3 90 90 Calm 30.03 1017 7 11 0.03 0.76
10:59 pm 22:59 Mostly Cloudy with Light Rain 77 25 74 23.3 90 90 S 6 9 30.03 1017 7 11 0.04 1.02
11:59 pm 23:59 Cloudy 76 24.4 73 22.8 91 91 SSW 8 13 30.00 1016 10 16 0.01 0.25

Powered by AerisWeather